| time (UTC) | temp F | wind direction | speed MPH | gust MPH | rain 1hr in | rain 24hr in | rain mn in | humidity % | barometer mb |
| 20260507183450 | 92 | 328 | 2.0 | 5.0 | 0.00 | 0.00 | 0.00 | 52 | 1014.7 |
| 20260507182948 | 91 | 247 | 5.0 | 11.0 | 0.00 | 0.00 | 0.00 | 55 | 1014.8 |
| 20260507182444 | 90 | 233 | 3.0 | 7.0 | 0.00 | 0.00 | 0.00 | 56 | 1014.7 |
| 20260507181940 | 89 | 233 | 2.0 | 3.0 | 0.00 | 0.00 | 0.00 | 58 | 1015.0 |
| 20260507181436 | 89 | 264 | 3.0 | 11.0 | 0.00 | 0.00 | 0.00 | 58 | 1014.9 |
| 20260507180933 | 90 | 230 | 7.0 | 11.0 | 0.00 | 0.00 | 0.00 | 55 | 1014.9 |
| 20260507180430 | 90 | 234 | 3.0 | 6.0 | 0.00 | 0.00 | 0.00 | 56 | 1014.6 |
| 20260507175926 | 90 | 273 | 3.0 | 8.0 | 0.00 | 0.00 | 0.00 | 57 | 1014.7 |
| 20260507175423 | 90 | 277 | 5.0 | 9.0 | 0.00 | 0.00 | 0.00 | 58 | 1014.7 |
| 20260507174921 | 89 | 310 | 3.0 | 11.0 | 0.00 | 0.00 | 0.00 | 60 | 1014.8 |
| 20260507174418 | 89 | 245 | 6.0 | 7.0 | 0.00 | 0.00 | 0.00 | 57 | 1014.6 |
| 20260507173915 | 89 | 164 | 4.0 | 6.0 | 0.00 | 0.00 | 0.00 | 57 | 1014.9 |
| 20260507173412 | 89 | 241 | 3.0 | 6.0 | 0.00 | 0.00 | 0.00 | 58 | 1014.7 |
| 20260507172908 | 89 | 274 | 2.0 | 8.0 | 0.00 | 0.00 | 0.00 | 61 | 1014.8 |
| 20260507172405 | 88 | 248 | 5.0 | 11.0 | 0.00 | 0.00 | 0.00 | 60 | 1015.2 |
| 20260507171901 | 88 | 216 | 7.0 | 10.0 | 0.00 | 0.00 | 0.00 | 62 | 1015.0 |
| 20260507171358 | 88 | 251 | 2.0 | 13.0 | 0.00 | 0.00 | 0.00 | 61 | 1015.1 |
| 20260507170855 | 87 | 238 | 6.0 | 12.0 | 0.00 | 0.00 | 0.00 | 61 | 1015.1 |
| 20260507170351 | 89 | 246 | 5.0 | 14.0 | 0.00 | 0.00 | 0.00 | 60 | 1015.2 |
| 20260507165848 | 89 | 220 | 5.0 | 7.0 | 0.00 | 0.00 | 0.00 | 60 | 1015.0 |
| 20260507165344 | 88 | 255 | 2.0 | 9.0 | 0.00 | 0.00 | 0.00 | 62 | 1015.1 |
| 20260507164840 | 88 | 187 | 5.0 | 7.0 | 0.00 | 0.00 | 0.00 | 61 | 1015.3 |
| 20260507164337 | 87 | 176 | 4.0 | 9.0 | 0.00 | 0.00 | 0.00 | 61 | 1015.2 |
| 20260507163834 | 87 | 225 | 2.0 | 9.0 | 0.00 | 0.00 | 0.00 | 62 | 1015.4 |
| 20260507163331 | 87 | 251 | 0.0 | 11.0 | 0.00 | 0.00 | 0.00 | 62 | 1015.6 |
| 20260507162828 | 87 | 248 | 12.0 | 12.0 | 0.00 | 0.00 | 0.00 | 63 | 1015.5 |
| 20260507162323 | 86 | 176 | 9.0 | 11.0 | 0.00 | 0.00 | 0.00 | 64 | 1015.5 |
| 20260507161820 | 86 | 234 | 4.0 | 11.0 | 0.00 | 0.00 | 0.00 | 66 | 1015.8 |
| 20260507161317 | 87 | 239 | 6.0 | 8.0 | 0.00 | 0.00 | 0.00 | 64 | 1015.7 |
| 20260507160814 | 87 | 210 | 4.0 | 8.0 | 0.00 | 0.00 | 0.00 | 64 | 1015.8 |
| 20260507160310 | 86 | 217 | 7.0 | 10.0 | 0.00 | 0.00 | 0.00 | 63 | 1016.0 |
| 20260507155806 | 86 | 195 | 3.0 | 8.0 | 0.00 | 0.00 | 0.00 | 64 | 1016.1 |
| 20260507155306 | 86 | 226 | 7.0 | 12.0 | 0.00 | 0.00 | 0.00 | 64 | 1016.1 |
| 20260507154758 | 86 | 194 | 3.0 | 8.0 | 0.00 | 0.00 | 0.00 | 63 | 1016.0 |
| 20260507154256 | 86 | 242 | 5.0 | 10.0 | 0.00 | 0.00 | 0.00 | 64 | 1016.0 |
| 20260507153752 | 85 | 271 | 4.0 | 9.0 | 0.00 | 0.00 | 0.00 | 65 | 1016.0 |
| 20260507153249 | 85 | 179 | 2.0 | 8.0 | 0.00 | 0.00 | 0.00 | 66 | 1016.1 |
| 20260507152746 | 85 | 198 | 3.0 | 8.0 | 0.00 | 0.00 | 0.00 | 66 | 1016.2 |
| 20260507152242 | 85 | 255 | 2.0 | 7.0 | 0.00 | 0.00 | 0.00 | 67 | 1016.1 |
| 20260507151738 | 84 | 245 | 4.0 | 10.0 | 0.00 | 0.00 | 0.00 | 68 | 1016.0 |
| 20260507151234 | 84 | 214 | 3.0 | 7.0 | 0.00 | 0.00 | 0.00 | 67 | 1016.2 |
| 20260507150731 | 85 | 208 | 4.0 | 9.0 | 0.00 | 0.00 | 0.00 | 65 | 1016.0 |
| 20260507150228 | 85 | 228 | 1.0 | 5.0 | 0.00 | 0.00 | 0.00 | 66 | 1016.2 |
| 20260507145724 | 84 | 259 | 3.0 | 8.0 | 0.00 | 0.00 | 0.00 | 67 | 1016.3 |
| 20260507145221 | 84 | 233 | 3.0 | 5.0 | 0.00 | 0.00 | 0.00 | 68 | 1016.3 |
| 20260507144718 | 83 | 208 | 4.0 | 8.0 | 0.00 | 0.00 | 0.00 | 69 | 1016.5 |
| 20260507144216 | 83 | 243 | 6.0 | 8.0 | 0.00 | 0.00 | 0.00 | 70 | 1016.4 |
| 20260507143712 | 83 | 252 | 2.0 | 5.0 | 0.00 | 0.00 | 0.00 | 72 | 1016.2 |
| 20260507143209 | 82 | 242 | 4.0 | 10.0 | 0.00 | 0.00 | 0.00 | 70 | 1016.3 |
| 20260507142705 | 82 | 235 | 7.0 | 11.0 | 0.00 | 0.00 | 0.00 | 70 | 1016.2 |
| 20260507142202 | 82 | 187 | 4.0 | 9.0 | 0.00 | 0.00 | 0.00 | 71 | 1016.2 |
| 20260507141658 | 82 | 314 | 3.0 | 7.0 | 0.00 | 0.00 | 0.00 | 74 | 1016.4 |
| 20260507141155 | 81 | 235 | 5.0 | 12.0 | 0.00 | 0.00 | 0.00 | 71 | 1016.5 |
| 20260507140651 | 81 | 237 | 5.0 | 13.0 | 0.00 | 0.00 | 0.00 | 74 | 1016.3 |
| 20260507140149 | 82 | 204 | 5.0 | 7.0 | 0.00 | 0.00 | 0.00 | 73 | 1016.7 |
| 20260507135646 | 81 | 228 | 6.0 | 14.0 | 0.00 | 0.00 | 0.00 | 75 | 1016.4 |
| 20260507135143 | 81 | 219 | 7.0 | 9.0 | 0.00 | 0.00 | 0.00 | 75 | 1016.4 |
| 20260507134639 | 80 | 234 | 4.0 | 11.0 | 0.00 | 0.00 | 0.00 | 77 | 1016.2 |
| 20260507134136 | 80 | 231 | 10.0 | 11.0 | 0.00 | 0.00 | 0.00 | 78 | 1016.5 |
| 20260507133632 | 79 | 226 | 6.0 | 12.0 | 0.00 | 0.00 | 0.00 | 80 | 1016.3 |
| 20260507133129 | 79 | 247 | 3.0 | 12.0 | 0.00 | 0.00 | 0.00 | 81 | 1016.5 |
| 20260507132626 | 80 | 212 | 2.0 | 7.0 | 0.00 | 0.00 | 0.00 | 81 | 1016.4 |
| 20260507132122 | 80 | 189 | 4.0 | 6.0 | 0.00 | 0.00 | 0.00 | 81 | 1016.3 |
| 20260507131619 | 79 | 209 | 3.0 | 6.0 | 0.00 | 0.00 | 0.00 | 82 | 1016.2 |
| 20260507131117 | 79 | 197 | 3.0 | 7.0 | 0.00 | 0.00 | 0.00 | 82 | 1016.6 |
| 20260507130613 | 78 | 169 | 6.0 | 8.0 | 0.00 | 0.00 | 0.00 | 83 | 1016.4 |
| 20260507130111 | 79 | 209 | 5.0 | 6.0 | 0.00 | 0.00 | 0.00 | 83 | 1016.3 |
| 20260507125610 | 78 | 184 | 2.0 | 9.0 | 0.00 | 0.00 | 0.00 | 85 | 1016.4 |
| 20260507125107 | 78 | 224 | 4.0 | 8.0 | 0.00 | 0.00 | 0.00 | 85 | 1016.3 |
| 20260507124603 | 77 | 220 | 5.0 | 7.0 | 0.00 | 0.00 | 0.00 | 85 | 1016.4 |
| 20260507124101 | 77 | 214 | 4.0 | 7.0 | 0.00 | 0.00 | 0.00 | 86 | 1016.3 |
| 20260507123559 | 77 | 235 | 3.0 | 7.0 | 0.00 | 0.00 | 0.00 | 87 | 1016.5 |
| 20260507123056 | 77 | 22 | 0.0 | 5.0 | 0.00 | 0.00 | 0.00 | 86 | 1016.5 |
| 20260507122551 | 76 | 219 | 3.0 | 6.0 | 0.00 | 0.00 | 0.00 | 87 | 1016.6 |
| 20260507122047 | 76 | 226 | 3.0 | 6.0 | 0.00 | 0.00 | 0.00 | 87 | 1016.6 |
| 20260507121542 | 77 | 249 | 1.0 | 2.0 | 0.00 | 0.00 | 0.00 | 86 | 1016.5 |
| 20260507121039 | 77 | 221 | 1.0 | 2.0 | 0.00 | 0.00 | 0.00 | 86 | 1016.2 |
| 20260507120535 | 76 | 224 | 1.0 | 3.0 | 0.00 | 0.00 | 0.00 | 87 | 1016.4 |
| 20260507120032 | 76 | 25 | 0.0 | 2.0 | 0.00 | 0.00 | 0.00 | 88 | 1016.4 |
| 20260507115528 | 75 | 299 | 1.0 | 3.0 | 0.00 | 0.00 | 0.00 | 89 | 1016.5 |
| 20260507115024 | 75 | 25 | 0.0 | 1.0 | 0.00 | 0.00 | 0.00 | 89 | 1016.4 |
| 20260507114520 | 73 | 287 | 2.0 | 2.0 | 0.00 | 0.00 | 0.00 | 91 | 1016.3 |
| 20260507114018 | 73 | 299 | 0.0 | 2.0 | 0.00 | 0.00 | 0.00 | 92 | 1016.1 |
| 20260507113515 | 72 | 324 | 0.0 | 2.0 | 0.00 | 0.00 | 0.00 | 93 | 1016.2 |
| 20260507113012 | 72 | 345 | 0.0 | 2.0 | 0.00 | 0.00 | 0.00 | 94 | 1016.3 |
| 20260507112510 | 71 | 325 | 0.0 | 2.0 | 0.00 | 0.00 | 0.00 | 95 | 1016.3 |
| 20260507112006 | 70 | 298 | 2.0 | 3.0 | 0.00 | 0.00 | 0.00 | 96 | 1016.4 |
| 20260507111504 | 70 | 338 | 2.0 | 3.0 | 0.00 | 0.00 | 0.00 | 97 | 1016.2 |
| 20260507110959 | 69 | 334 | 2.0 | 3.0 | 0.00 | 0.00 | 0.00 | 97 | 1016.3 |
| 20260507110456 | 69 | 338 | 2.0 | 3.0 | 0.00 | 0.00 | 0.00 | 98 | 1016.0 |
| 20260507105952 | 69 | 260 | 0.0 | 4.0 | 0.00 | 0.00 | 0.00 | 98 | 1015.9 |
| 20260507105449 | 69 | 318 | 3.0 | 4.0 | 0.00 | 0.00 | 0.00 | 98 | 1015.9 |
| 20260507104946 | 69 | 320 | 3.0 | 5.0 | 0.00 | 0.00 | 0.00 | 98 | 1015.8 |
| 20260507104443 | 69 | 280 | 1.0 | 5.0 | 0.00 | 0.00 | 0.00 | 98 | 1015.7 |
| 20260507103939 | 69 | 309 | 4.0 | 5.0 | 0.00 | 0.00 | 0.00 | 98 | 1015.3 |
| 20260507103436 | 69 | 269 | 2.0 | 5.0 | 0.00 | 0.00 | 0.00 | 98 | 1015.5 |
| 20260507102932 | 69 | 290 | 2.0 | 6.0 | 0.00 | 0.00 | 0.00 | 98 | 1015.3 |
| 20260507102429 | 70 | 347 | 2.0 | 3.0 | 0.00 | 0.00 | 0.00 | 98 | 1015.1 |
| 20260507101925 | 69 | 261 | 5.0 | 11.0 | 0.00 | 0.00 | 0.00 | 98 | 1015.1 |
| 20260507101420 | 69 | 202 | 0.0 | 2.0 | 0.00 | 0.00 | 0.00 | 98 | 1014.9 |
| 20260507100917 | 69 | 220 | 0.0 | 4.0 | 0.00 | 0.00 | 0.00 | 97 | 1014.9 |
| 20260507100415 | 70 | 268 | 2.0 | 3.0 | 0.00 | 0.00 | 0.00 | 97 | 1014.5 |
| 20260507095913 | 70 | 170 | 2.0 | 4.0 | 0.00 | 0.00 | 0.00 | 97 | 1014.4 |
| 20260507095409 | 70 | 99 | 1.0 | 2.0 | 0.00 | 0.00 | 0.00 | 97 | 1014.4 |
| 20260507094907 | 70 | 129 | 2.0 | 5.0 | 0.00 | 0.00 | 0.00 | 98 | 1014.5 |
| 20260507094403 | 69 | 129 | 2.0 | 4.0 | 0.00 | 0.00 | 0.00 | 99 | 1014.5 |
| 20260507093900 | 68 | 138 | 2.0 | 2.0 | 0.00 | 0.00 | 0.00 | 99 | 1014.6 |
| 20260507093358 | 68 | 52 | 0.0 | 1.0 | 0.00 | 0.00 | 0.00 | 99 | 1014.6 |
| 20260507092856 | 68 | 304 | 0.0 | 0.0 | 0.00 | 0.00 | 0.00 | 99 | 1014.4 |
| 20260507092352 | 68 | 41 | 0.0 | 1.0 | 0.00 | 0.00 | 0.00 | 99 | 1014.6 |
| 20260507091849 | 68 | 15 | 0.0 | 2.0 | 0.00 | 0.00 | 0.00 | 99 | 1014.4 |
| 20260507091345 | 69 | 168 | 1.0 | 3.0 | 0.00 | 0.00 | 0.00 | 99 | 1014.5 |
| 20260507090841 | 68 | 188 | 0.0 | 1.0 | 0.00 | 0.00 | 0.00 | 99 | 1014.5 |
| 20260507090337 | 68 | 64 | 0.0 | 2.0 | 0.00 | 0.00 | 0.00 | 99 | 1014.7 |
| 20260507085834 | 68 | 219 | 0.0 | 2.0 | 0.00 | 0.00 | 0.00 | 99 | 1014.4 |
| 20260507085331 | 68 | 210 | 1.0 | 2.0 | 0.00 | 0.00 | 0.00 | 99 | 1014.6 |
| 20260507084829 | 68 | 223 | 0.0 | 2.0 | 0.00 | 0.00 | 0.00 | 99 | 1014.3 |
| 20260507084325 | 68 | 240 | 0.0 | 2.0 | 0.00 | 0.00 | 0.00 | 99 | 1014.3 |
| 20260507083822 | 69 | 32 | 0.0 | 2.0 | 0.00 | 0.00 | 0.00 | 99 | 1014.5 |
| 20260507083319 | 68 | 37 | 0.0 | 1.0 | 0.00 | 0.00 | 0.00 | 98 | 1014.4 |
| 20260507082815 | 68 | 38 | 0.0 | 2.0 | 0.00 | 0.00 | 0.00 | 99 | 1014.5 |
| 20260507082310 | 69 | 230 | 0.0 | 2.0 | 0.00 | 0.00 | 0.00 | 98 | 1014.3 |
| 20260507081808 | 69 | 32 | 0.0 | 2.0 | 0.00 | 0.00 | 0.00 | 98 | 1014.4 |
| 20260507081304 | 69 | 48 | 2.0 | 3.0 | 0.00 | 0.00 | 0.00 | 98 | 1014.4 |
| 20260507080801 | 69 | 343 | 0.0 | 2.0 | 0.00 | 0.00 | 0.00 | 99 | 1014.5 |
| 20260507080257 | 69 | 217 | 0.0 | 1.0 | 0.00 | 0.00 | 0.00 | 98 | 1014.5 |
| 20260507075752 | 69 | 2 | 0.0 | 2.0 | 0.00 | 0.00 | 0.00 | 98 | 1014.4 |
| 20260507075248 | 69 | 36 | 0.0 | 1.0 | 0.00 | 0.00 | 0.00 | 98 | 1014.4 |
| 20260507074745 | 69 | 75 | 0.0 | 2.0 | 0.00 | 0.00 | 0.00 | 98 | 1014.7 |
| 20260507074243 | 69 | 322 | 0.0 | 2.0 | 0.00 | 0.00 | 0.00 | 97 | 1014.5 |
| 20260507073740 | 69 | 157 | 0.0 | 1.0 | 0.00 | 0.00 | 0.00 | 97 | 1014.4 |
| 20260507073236 | 69 | 192 | 0.0 | 1.0 | 0.00 | 0.00 | 0.00 | 97 | 1014.5 |
| 20260507072734 | 70 | 336 | 0.0 | 0.0 | 0.00 | 0.00 | 0.00 | 96 | 1014.6 |
| 20260507072231 | 70 | 250 | 0.0 | 1.0 | 0.00 | 0.00 | 0.00 | 96 | 1014.8 |
| 20260507071729 | 70 | 314 | 0.0 | 2.0 | 0.00 | 0.00 | 0.00 | 96 | 1014.7 |
| 20260507071225 | 70 | 305 | 2.0 | 2.0 | 0.00 | 0.00 | 0.00 | 96 | 1014.7 |
| 20260507070722 | 70 | 272 | 1.0 | 2.0 | 0.00 | 0.00 | 0.00 | 96 | 1015.0 |
| 20260507070219 | 70 | 230 | 0.0 | 0.0 | 0.00 | 0.00 | 0.00 | 96 | 1015.1 |
| 20260507065715 | 71 | 258 | 0.0 | 2.0 | 0.00 | 0.00 | 0.00 | 95 | 1015.1 |
| 20260507065212 | 71 | 242 | 0.0 | 2.0 | 0.00 | 0.00 | 0.00 | 95 | 1014.7 |
| 20260507064709 | 71 | 249 | 1.0 | 3.0 | 0.00 | 0.00 | 0.00 | 95 | 1015.0 |
| 20260507064209 | 71 | 219 | 0.0 | 2.0 | 0.00 | 0.00 | 0.00 | 94 | 1015.0 |
| 20260507063705 | 71 | 244 | 2.0 | 4.0 | 0.00 | 0.00 | 0.00 | 94 | 1014.9 |
| 20260507063202 | 72 | 242 | 1.0 | 3.0 | 0.00 | 0.00 | 0.00 | 93 | 1015.2 |
| 20260507062659 | 72 | 231 | 2.0 | 4.0 | 0.00 | 0.00 | 0.00 | 93 | 1015.1 |
| 20260507062156 | 72 | 243 | 4.0 | 4.0 | 0.00 | 0.00 | 0.00 | 92 | 1015.2 |
| 20260507061654 | 72 | 233 | 1.0 | 4.0 | 0.00 | 0.00 | 0.00 | 91 | 1015.3 |
| 20260507061152 | 72 | 258 | 1.0 | 5.0 | 0.00 | 0.00 | 0.00 | 91 | 1015.2 |
| 20260507060650 | 73 | 251 | 2.0 | 3.0 | 0.00 | 0.00 | 0.00 | 90 | 1015.4 |
| 20260507060146 | 73 | 238 | 2.0 | 3.0 | 0.00 | 0.00 | 0.00 | 88 | 1015.4 |
| 20260507055642 | 74 | 260 | 2.0 | 2.0 | 0.00 | 0.00 | 0.00 | 87 | 1015.4 |
| 20260507055138 | 74 | 258 | 2.0 | 2.0 | 0.00 | 0.00 | 0.00 | 87 | 1015.7 |
| 20260507054634 | 74 | 187 | 0.0 | 2.0 | 0.00 | 0.00 | 0.00 | 86 | 1015.6 |
| 20260507054131 | 74 | 187 | 0.0 | 2.0 | 0.00 | 0.00 | 0.00 | 85 | 1015.7 |
| 20260507053629 | 75 | 222 | 1.0 | 2.0 | 0.00 | 0.00 | 0.00 | 84 | 1015.7 |
| 20260507053127 | 75 | 179 | 3.0 | 5.0 | 0.00 | 0.00 | 0.00 | 83 | 1015.6 |
| 20260507052625 | 75 | 169 | 3.0 | 5.0 | 0.00 | 0.00 | 0.00 | 83 | 1015.8 |
| 20260507052121 | 76 | 188 | 2.0 | 4.0 | 0.00 | 0.00 | 0.00 | 82 | 1015.8 |
| 20260507051619 | 76 | 177 | 4.0 | 5.0 | 0.00 | 0.00 | 0.00 | 82 | 1015.8 |
| 20260507051115 | 76 | 185 | 4.0 | 5.0 | 0.00 | 0.00 | 0.00 | 82 | 1015.9 |
| 20260507050612 | 76 | 149 | 4.0 | 8.0 | 0.00 | 0.00 | 0.00 | 81 | 1015.8 |
| 20260507050109 | 76 | 137 | 3.0 | 6.0 | 0.00 | 0.00 | 0.00 | 81 | 1015.8 |
| 20260507045605 | 76 | 169 | 3.0 | 5.0 | 0.00 | 0.00 | 0.00 | 81 | 1016.1 |
| 20260507045103 | 76 | 133 | 2.0 | 4.0 | 0.00 | 0.00 | 0.00 | 81 | 1016.1 |
| 20260507044559 | 76 | 156 | 3.0 | 4.0 | 0.00 | 0.00 | 0.00 | 81 | 1015.8 |
| 20260507044056 | 76 | 50 | 0.0 | 6.0 | 0.00 | 0.00 | 0.00 | 81 | 1016.0 |
| 20260507043552 | 76 | 86 | 1.0 | 5.0 | 0.00 | 0.00 | 0.00 | 80 | 1015.9 |
| 20260507043049 | 76 | 119 | 0.0 | 5.0 | 0.00 | 0.00 | 0.00 | 80 | 1015.9 |
| 20260507042545 | 76 | 147 | 3.0 | 6.0 | 0.00 | 0.00 | 0.00 | 80 | 1016.0 |
| 20260507042041 | 77 | 143 | 3.0 | 6.0 | 0.00 | 0.00 | 0.00 | 80 | 1016.0 |
| 20260507041538 | 77 | 164 | 3.0 | 4.0 | 0.00 | 0.00 | 0.00 | 80 | 1016.1 |
| 20260507041035 | 77 | 106 | 1.0 | 7.0 | 0.00 | 0.00 | 0.00 | 80 | 1016.0 |
| 20260507040531 | 77 | 160 | 1.0 | 5.0 | 0.00 | 0.00 | 0.00 | 80 | 1016.1 |
| 20260507040027 | 77 | 113 | 2.0 | 7.0 | 0.00 | 0.00 | 0.00 | 80 | 1015.7 |
| 20260507035524 | 77 | 143 | 1.0 | 7.0 | 0.00 | 0.00 | 0.00 | 80 | 1015.9 |
| 20260507035020 | 77 | 137 | 4.0 | 7.0 | 0.00 | 0.00 | 0.00 | 80 | 1015.6 |
| 20260507034517 | 77 | 148 | 4.0 | 6.0 | 0.00 | 0.00 | 0.00 | 80 | 1015.7 |
| 20260507034015 | 77 | 122 | 3.0 | 9.0 | 0.00 | 0.00 | 0.00 | 81 | 1016.0 |
| 20260507033513 | 77 | 150 | 4.0 | 5.0 | 0.00 | 0.00 | 0.00 | 81 | 1015.9 |
| 20260507033010 | 77 | 126 | 3.0 | 6.0 | 0.00 | 0.00 | 0.00 | 81 | 1016.0 |
| 20260507032507 | 77 | 140 | 3.0 | 7.0 | 0.00 | 0.00 | 0.00 | 81 | 1016.2 |
| 20260507032003 | 77 | 150 | 2.0 | 7.0 | 0.00 | 0.00 | 0.00 | 81 | 1016.2 |
| 20260507031459 | 77 | 167 | 0.0 | 6.0 | 0.00 | 0.00 | 0.00 | 81 | 1016.0 |
| 20260507030956 | 77 | 178 | 1.0 | 7.0 | 0.00 | 0.00 | 0.00 | 81 | 1015.9 |
| 20260507030453 | 77 | 183 | 0.0 | 4.0 | 0.00 | 0.00 | 0.00 | 81 | 1016.0 |
| 20260507025950 | 77 | 127 | 3.0 | 5.0 | 0.00 | 0.00 | 0.00 | 81 | 1015.9 |
| 20260507025447 | 77 | 126 | 1.0 | 7.0 | 0.00 | 0.00 | 0.00 | 81 | 1015.9 |
| 20260507024945 | 77 | 122 | 2.0 | 5.0 | 0.00 | 0.00 | 0.00 | 82 | 1016.2 |
| 20260507024442 | 77 | 101 | 3.0 | 5.0 | 0.00 | 0.00 | 0.00 | 83 | 1016.2 |
| 20260507023938 | 77 | 92 | 2.0 | 5.0 | 0.00 | 0.00 | 0.00 | 83 | 1015.9 |
| 20260507023435 | 77 | 76 | 2.0 | 7.0 | 0.00 | 0.00 | 0.00 | 83 | 1016.1 |
| 20260507022932 | 77 | 99 | 3.0 | 6.0 | 0.00 | 0.00 | 0.00 | 82 | 1016.1 |
| 20260507022429 | 77 | 133 | 2.0 | 5.0 | 0.00 | 0.00 | 0.00 | 82 | 1016.4 |
| 20260507021925 | 77 | 113 | 3.0 | 9.0 | 0.00 | 0.00 | 0.00 | 82 | 1016.2 |
| 20260507021420 | 77 | 110 | 2.0 | 6.0 | 0.00 | 0.00 | 0.00 | 82 | 1016.2 |
| 20260507020918 | 77 | 102 | 3.0 | 9.0 | 0.00 | 0.00 | 0.00 | 82 | 1016.3 |
| 20260507020415 | 77 | 154 | 2.0 | 7.0 | 0.00 | 0.00 | 0.00 | 82 | 1016.0 |
| 20260507015912 | 77 | 108 | 4.0 | 6.0 | 0.00 | 0.00 | 0.00 | 81 | 1016.2 |
| 20260507015410 | 77 | 99 | 3.0 | 7.0 | 0.00 | 0.00 | 0.00 | 81 | 1016.1 |
| 20260507014907 | 77 | 115 | 3.0 | 5.0 | 0.00 | 0.00 | 0.00 | 80 | 1016.2 |
| 20260507014403 | 77 | 108 | 3.0 | 4.0 | 0.00 | 0.00 | 0.00 | 80 | 1016.1 |
| 20260507013859 | 77 | 120 | 0.0 | 7.0 | 0.00 | 0.00 | 0.00 | 80 | 1016.3 |
| 20260507013356 | 77 | 119 | 2.0 | 3.0 | 0.00 | 0.00 | 0.00 | 80 | 1016.0 |
| 20260507012854 | 77 | 104 | 3.0 | 3.0 | 0.00 | 0.00 | 0.00 | 79 | 1016.3 |
| 20260507012349 | 77 | 87 | 1.0 | 4.0 | 0.00 | 0.00 | 0.00 | 79 | 1016.0 |
| 20260507011841 | 77 | 120 | 0.0 | 5.0 | 0.00 | 0.00 | 0.00 | 79 | 1016.0 |
| 20260507011338 | 77 | 116 | 0.0 | 3.0 | 0.00 | 0.00 | 0.00 | 78 | 1016.1 |
| 20260507010832 | 77 | 100 | 2.0 | 4.0 | 0.00 | 0.00 | 0.00 | 78 | 1016.0 |
| 20260507010328 | 77 | 120 | 4.0 | 5.0 | 0.00 | 0.00 | 0.00 | 78 | 1016.0 |
| 20260507005825 | 77 | 105 | 3.0 | 5.0 | 0.00 | 0.00 | 0.00 | 78 | 1016.1 |
| 20260507005322 | 77 | 112 | 2.0 | 3.0 | 0.00 | 0.00 | 0.00 | 77 | 1016.1 |
| 20260507004819 | 77 | 44 | 0.0 | 3.0 | 0.00 | 0.00 | 0.00 | 77 | 1016.0 |
| 20260507004316 | 77 | 141 | 2.0 | 7.0 | 0.00 | 0.00 | 0.00 | 76 | 1015.8 |
| 20260507003813 | 78 | 112 | 2.0 | 5.0 | 0.00 | 0.00 | 0.00 | 75 | 1016.0 |
| 20260507003308 | 78 | 112 | 3.0 | 7.0 | 0.00 | 0.00 | 0.00 | 74 | 1015.9 |
| 20260507002803 | 78 | 96 | 2.0 | 6.0 | 0.00 | 0.00 | 0.00 | 74 | 1015.8 |
| 20260507002300 | 78 | 97 | 1.0 | 4.0 | 0.00 | 0.00 | 0.00 | 73 | 1015.8 |
| 20260507001757 | 78 | 121 | 2.0 | 5.0 | 0.00 | 0.00 | 0.00 | 72 | 1015.9 |
| 20260507001255 | 78 | 133 | 2.0 | 6.0 | 0.00 | 0.00 | 0.00 | 73 | 1015.8 |
| 20260507000751 | 78 | 110 | 4.0 | 6.0 | 0.00 | 0.00 | 0.00 | 73 | 1016.0 |
| 20260507000246 | 78 | 114 | 3.0 | 5.0 | 0.00 | 0.00 | 0.00 | 73 | 1015.6 |
| 20260506235743 | 79 | 145 | 1.0 | 6.0 | 0.00 | 0.00 | 0.00 | 72 | 1015.8 |
| 20260506235238 | 79 | 89 | 1.0 | 5.0 | 0.00 | 0.00 | 0.00 | 72 | 1015.7 |
| 20260506234736 | 79 | 160 | 1.0 | 5.0 | 0.00 | 0.00 | 0.00 | 71 | 1015.5 |
| 20260506234233 | 79 | 138 | 2.0 | 6.0 | 0.00 | 0.00 | 0.00 | 71 | 1015.8 |
| 20260506233731 | 80 | 148 | 2.0 | 9.0 | 0.00 | 0.00 | 0.00 | 69 | 1015.5 |
| 20260506233227 | 80 | 100 | 3.0 | 6.0 | 0.00 | 0.00 | 0.00 | 68 | 1015.7 |
| 20260506232724 | 80 | 95 | 3.0 | 10.0 | 0.00 | 0.00 | 0.00 | 67 | 1015.8 |
| 20260506232218 | 81 | 76 | 2.0 | 5.0 | 0.00 | 0.00 | 0.00 | 69 | 1015.8 |
| 20260506231716 | 81 | 119 | 2.0 | 9.0 | 0.00 | 0.00 | 0.00 | 68 | 1015.8 |
| 20260506231214 | 81 | 99 | 4.0 | 7.0 | 0.00 | 0.00 | 0.00 | 67 | 1015.8 |
| 20260506230710 | 81 | 140 | 2.0 | 7.0 | 0.00 | 0.00 | 0.00 | 68 | 1015.8 |
| 20260506230208 | 81 | 110 | 4.0 | 9.0 | 0.00 | 0.00 | 0.00 | 66 | 1016.0 |
| 20260506225704 | 81 | 114 | 5.0 | 11.0 | 0.00 | 0.00 | 0.00 | 66 | 1016.0 |
| 20260506225201 | 81 | 150 | 5.0 | 10.0 | 0.00 | 0.00 | 0.00 | 67 | 1015.8 |
| 20260506224657 | 81 | 110 | 5.0 | 8.0 | 0.00 | 0.00 | 0.00 | 66 | 1016.0 |
| 20260506224154 | 82 | 126 | 5.0 | 8.0 | 0.00 | 0.00 | 0.00 | 66 | 1015.7 |
| 20260506223651 | 82 | 78 | 0.0 | 8.0 | 0.00 | 0.00 | 0.00 | 66 | 1015.8 |
| 20260506223146 | 82 | 114 | 5.0 | 11.0 | 0.00 | 0.00 | 0.00 | 65 | 1015.9 |
| 20260506222644 | 82 | 113 | 2.0 | 5.0 | 0.00 | 0.00 | 0.00 | 66 | 1015.9 |
| 20260506222139 | 82 | 105 | 4.0 | 9.0 | 0.00 | 0.00 | 0.00 | 66 | 1015.6 |
| 20260506221638 | 82 | 103 | 8.0 | 13.0 | 0.00 | 0.00 | 0.00 | 66 | 1015.7 |
| 20260506221136 | 82 | 94 | 6.0 | 11.0 | 0.00 | 0.00 | 0.00 | 67 | 1015.6 |
| 20260506220632 | 82 | 103 | 5.0 | 13.0 | 0.00 | 0.00 | 0.00 | 66 | 1015.6 |
| 20260506220127 | 82 | 106 | 9.0 | 11.0 | 0.00 | 0.00 | 0.00 | 66 | 1015.9 |
| 20260506215624 | 82 | 126 | 5.0 | 12.0 | 0.00 | 0.00 | 0.00 | 66 | 1015.7 |
| 20260506215119 | 83 | 99 | 9.0 | 12.0 | 0.00 | 0.00 | 0.00 | 64 | 1015.8 |
| 20260506214616 | 83 | 81 | 2.0 | 10.0 | 0.00 | 0.00 | 0.00 | 65 | 1015.7 |
| 20260506214114 | 83 | 115 | 4.0 | 8.0 | 0.00 | 0.00 | 0.00 | 64 | 1015.4 |
| 20260506213612 | 83 | 92 | 3.0 | 16.0 | 0.00 | 0.00 | 0.00 | 66 | 1015.6 |
| 20260506213109 | 83 | 81 | 6.0 | 12.0 | 0.00 | 0.00 | 0.00 | 63 | 1015.8 |
| 20260506212606 | 83 | 100 | 10.0 | 14.0 | 0.00 | 0.00 | 0.00 | 63 | 1015.5 |
| 20260506212101 | 83 | 109 | 5.0 | 10.0 | 0.00 | 0.00 | 0.00 | 65 | 1015.7 |
| 20260506211557 | 83 | 94 | 5.0 | 15.0 | 0.00 | 0.00 | 0.00 | 64 | 1015.7 |
| 20260506211054 | 83 | 126 | 2.0 | 11.0 | 0.00 | 0.00 | 0.00 | 64 | 1015.7 |
| 20260506210550 | 83 | 108 | 4.0 | 11.0 | 0.00 | 0.00 | 0.00 | 65 | 1015.9 |
| 20260506210047 | 84 | 99 | 9.0 | 11.0 | 0.00 | 0.00 | 0.00 | 63 | 1015.6 |
| 20260506205544 | 83 | 91 | 2.0 | 10.0 | 0.00 | 0.00 | 0.00 | 66 | 1015.7 |
| 20260506205039 | 84 | 123 | 4.0 | 12.0 | 0.00 | 0.00 | 0.00 | 64 | 1015.7 |
| 20260506204537 | 84 | 92 | 3.0 | 11.0 | 0.00 | 0.00 | 0.00 | 66 | 1015.7 |
| 20260506204034 | 83 | 102 | 6.0 | 14.0 | 0.00 | 0.00 | 0.00 | 64 | 1015.6 |
| 20260506203533 | 83 | 106 | 3.0 | 9.0 | 0.00 | 0.00 | 0.00 | 64 | 1015.7 |
| 20260506203029 | 83 | 129 | 5.0 | 10.0 | 0.00 | 0.00 | 0.00 | 64 | 1015.7 |
| 20260506202526 | 84 | 108 | 3.0 | 10.0 | 0.00 | 0.00 | 0.00 | 64 | 1015.7 |
| 20260506202022 | 84 | 69 | 15.0 | 15.0 | 0.00 | 0.00 | 0.00 | 65 | 1015.8 |
| 20260506201520 | 83 | 136 | 6.0 | 11.0 | 0.00 | 0.00 | 0.00 | 66 | 1015.9 |
| 20260506201016 | 85 | 131 | 3.0 | 10.0 | 0.00 | 0.00 | 0.00 | 65 | 1015.8 |
| 20260506200513 | 85 | 109 | 5.0 | 13.0 | 0.00 | 0.00 | 0.00 | 64 | 1016.0 |
| 20260506200010 | 84 | 106 | 6.0 | 13.0 | 0.00 | 0.00 | 0.00 | 64 | 1016.0 |
| 20260506195507 | 83 | 89 | 3.0 | 14.0 | 0.00 | 0.00 | 0.00 | 65 | 1015.8 |
| 20260506195003 | 83 | 134 | 4.0 | 11.0 | 0.00 | 0.00 | 0.00 | 66 | 1015.6 |
| 20260506194500 | 84 | 115 | 6.0 | 8.0 | 0.00 | 0.00 | 0.00 | 65 | 1015.7 |
| 20260506193956 | 84 | 149 | 5.0 | 14.0 | 0.00 | 0.00 | 0.00 | 67 | 1015.7 |
| 20260506193454 | 84 | 113 | 2.0 | 11.0 | 0.00 | 0.00 | 0.00 | 65 | 1015.9 |
| 20260506192950 | 84 | 118 | 4.0 | 9.0 | 0.00 | 0.00 | 0.00 | 63 | 1016.0 |
| 20260506192448 | 84 | 106 | 4.0 | 10.0 | 0.00 | 0.00 | 0.00 | 65 | 1016.0 |
| 20260506191944 | 84 | 155 | 6.0 | 12.0 | 0.00 | 0.00 | 0.00 | 66 | 1016.1 |
| 20260506191441 | 84 | 120 | 4.0 | 10.0 | 0.00 | 0.00 | 0.00 | 64 | 1016.2 |
| 20260506190937 | 84 | 81 | 8.0 | 12.0 | 0.00 | 0.00 | 0.00 | 65 | 1016.3 |
| 20260506190434 | 85 | 147 | 7.0 | 10.0 | 0.00 | 0.00 | 0.00 | 57 | 1016.6 |
| 20260506185931 | 84 | 161 | 5.0 | 7.0 | 0.00 | 0.00 | 0.00 | 58 | 1016.4 |
| 20260506185428 | 85 | 110 | 5.0 | 11.0 | 0.00 | 0.00 | 0.00 | 52 | 1016.4 |
| 20260506184925 | 85 | 103 | 3.0 | 12.0 | 0.00 | 0.00 | 0.00 | 54 | 1016.6 |
| 20260506184422 | 85 | 88 | 2.0 | 11.0 | 0.00 | 0.00 | 0.00 | 57 | 1016.6 |
| 20260506183919 | 84 | 107 | 9.0 | 9.0 | 0.00 | 0.00 | 0.00 | 54 | 1016.7 |